www.pogodaiklimat.ru

Погода и климат >> Архив погоды >> Таиланд >> Nan Agromet


ПОГОДА в Nan Agromet

  • Прогноз погоды в Nan Agromet
  • Монитор погоды в Nan Agromet
  • Климат города

АРХИВ ПОГОДЫ в Nan Agromet

Время (UTC), дата Ветер
(напр.,м/с)
 
Видим.   Явления Облачность Т
(С)
Тd
(С)
f
(%)
Тe
(С)
Тes
(С)
Комфортность P
(гПа)
Po
(гПа)
Тmin
(С)
Tmax
(С)
R
(мм)
R24
(мм)
S
(см)
03 14.05 Ю 4 12 км 3/3 600 м
[Cu hum Ci fib]
+29.0 +23.2 71 +39 +47 очень
душно
1011.3 981.6
06 14.05 ЮЗ 2 12 км 4/3 600 м
[Cu hum Ac lent Ci fib]
+32.1 +22.8 58 +42 +56 опасность
перегрева
1009.5 980.1
09 14.05 штиль 0 12 км 4/4 600 м
[Sc Ci fib]
+34.0 +22.4 51 +43 +50 опасность
перегрева
1004.9 975.8
12 14.05 штиль 0 12 км 4/4 600 м
[Sc Ci fib]
+29.9 +24.2 72 +42 +42 опасность
перегрева
1005.6 976.1 +34.1
15 14.05 штиль 0 10 км 4/4 600 м
[Sc Ci fib]
+25.5 +22.4 83 +33 +33 очень
душно
1008.8 978.8
18 14.05 штиль 0 8000 м дымка 6/4 600 м
[Sc Ac und Ci fib]
+24.4 +21.7 85 +31 +31 очень
душно
1008.0 977.9
21 14.05 штиль 0 8000 м дымка 3/3 600 м
[Cu hum Ci fib]
+23.2 +21.4 90 +31 +31 очень
душно
1007.2 977.0
00 15.05 штиль 0 12 км 1/0
[Ci fib]
+23.7 +22.3 92 +31 +33 очень
душно
1008.9 978.7 +22.0
03 15.05 СЗ 2 12 км 8/8 600 м
[Sc Ac As Ci fib]
+30.0 +23.0 66 +40 +43 очень
душно
1009.3 979.7
06 15.05 ЮВ 3 12 км 6/6 600 м
[Sc]
+32.7 +23.0 57 +43 +50 опасность
перегрева
1007.0 977.8
09 15.05 ЮЗ 4 12 км {гроза, дождь} 3/3 600 м
[Sc]
+34.3 +22.7 51 +44 +48 опасность
перегрева
1003.8 974.8 0.8
12 15.05 штиль 0 12 км {гроза, дождь} 6/1 600 м
[Cu hum Ac As Cs]
+30.8 +25.4 73 +45 +45 опасность
перегрева
1004.8 975.5 +34.7 0.8
15 15.05 штиль 0 10 км 6/4 600 м
[Sc Ac As Ci fib]
+26.5 +22.8 80 +35 +35 очень
душно
1006.9 977.0
18 15.05 штиль 0 8000 м дымка 3/1 600 м
[Cu hum Ci fib]
+24.5 +22.9 91 +32 +32 очень
душно
1008.1 978.0
21 15.05 СВ 6 8000 м дымка 4/4 600 м
[Sc Ci fib]
+23.2 +22.4 95 +32 +32 очень
душно
1006.9 976.7
00 16.05 штиль 0 12 км 3/1 600 м
[Cu hum Ac und]
+23.2 +21.4 90 +31 +33 очень
душно
1008.6 978.4 +22.0
03 16.05 штиль 0 12 км ясно +29.8 +22.8 66 +39 +61 опасность
солнечного
удара
1008.8 979.2
06 16.05 штиль 0 12 км 3/3 600 м
[Cu med, cong]
+33.8 +22.6 52 +43 +64 опасность
перегрева
1005.9 976.8
09 16.05 штиль 0 12 км 3/3 600 м
[Cu med, cong]
+35.7 +22.9 48 +46 +53 опасность
перегрева
1003.0 974.1
12 16.05 штиль 0 12 км 3/3 600 м
[Cu med, cong]
+31.4 +23.6 63 +42 +42 опасность
перегрева
1003.5 974.2 +35.8
15 16.05 штиль 0 8000 м дымка 3/0
[Cs]
+27.8 +24.0 80 +39 +39 очень
душно
1006.7 977.0
18 16.05 штиль 0 5000 м дымка ясно +25.6 +23.2 87 +34 +34 очень
душно
1007.0 977.1
21 16.05 штиль 0 5000 м дымка 6/3 600 м
[Sc Ac und Cs]
+24.5 +22.6 89 +32 +32 очень
душно
1005.5 975.5
00 17.05 штиль 0 7000 м в посл. час дождь {гроза} 8/3 600 м
[Sc Ac und Cs]
+22.0 +21.1 95 +28 +29 душно 1010.7 980.3 +21.9 18
03 17.05 штиль 0 12 км 3/3 600 м
[Cu med, cong]
+27.9 +22.9 74 +37 +52 опасность
солнечного
удара
1010.5 980.6
06 17.05 штиль 0 12 км 3/3 600 м
[Cu med, cong]
+31.0 +23.5 64 +42 +62 опасность
перегрева
1007.9 978.4
09 17.05 штиль 0 12 км 3/3 600 м
[Cu med, cong]
+32.8 +23.8 59 +44 +52 опасность
перегрева
1004.1 974.9
12 17.05 штиль 0 8000 м гроза, ливневой дождь 10/3 600 м
[Cb cap Ac As]
+26.8 +24.2 86 +37 +37 очень
душно
1007.2 977.3 +33.0 2
15 17.05 штиль 0 6000 м дымка {гроза, дождь} 10/6 600 м
[Sc Ac As]
+23.0 +21.8 93 +31 +31 очень
душно
1008.3 978.0 4
18 17.05 штиль 0 5000 м дымка {гроза, дождь} 8/3 600 м
[Sc Ac und Cs]
+22.5 +21.7 95 +30 +30 очень
душно
1008.6 978.3
21 17.05 штиль 0 5000 м дымка 6/3 600 м
[Sc Ac und Cs]
+22.2 +21.4 95 +29 +29 очень
душно
1007.1 976.8
00 18.05 штиль 0 10 км 3/0
[Cs]
+21.5 +20.7 95 +27 +29 душно 1008.4 978.0 +21.3
03 18.05 штиль 0 12 км 3/3 600 м
[Cu med, cong]
+28.0 +23.3 76 +38 +53 опасность
солнечного
удара
1010.0 980.2
06 18.05 штиль 0 12 км 3/3 600 м
[Cu med, cong]
+33.0 +22.9 55 +43 +63 опасность
перегрева
1005.9 976.7
09 18.05 штиль 0 12 км 3/3 600 м
[Cu med, cong]
+34.2 +23.3 53 +45 +53 опасность
перегрева
1002.7 973.7
12 18.05 штиль 0 10 км 3/0
[Cs]
+30.2 +24.2 70 +42 +42 опасность
перегрева
1003.4 974.0 +34.6
15 18.05 штиль 0 7000 м дымка 3/0
[Cs]
+27.2 +24.0 83 +38 +38 очень
душно
1006.7 976.9
18 18.05 штиль 0 5000 м дымка 5/3 600 м
[Sc Ac und Cs]
+25.4 +23.3 88 +34 +34 очень
душно
1007.2 977.2
21 18.05 штиль 0 5000 м дымка 3/0
[Cs]
+24.5 +23.0 91 +32 +32 очень
душно
1006.0 975.9
00 19.05 штиль 0 8000 м дымка 8/3 600 м
[Sc Ac und Cs]
+23.4 +22.6 95 +32 +34 очень
душно
1008.7 978.4 +23.2
03 19.05 штиль 0 12 км 8/3 600 м
[Cu hum Ac und]
+27.4 +21.7 71 +35 +43 очень
душно
1009.4 979.6
06 19.05 штиль 0 12 км 6/4 600 м
[Sc Ac und Ci fib]
+31.7 +21.8 56 +40 +55 опасность
солнечного
удара
1006.7 977.3
09 19.05 ЮЗ 2 12 км 3/3 600 м
[Cu med, cong As trans Ci fib]
+34.4 +22.8 51 +44 +50 опасность
перегрева
1003.4 974.4
12 19.05 штиль 0 12 км 3/3 300 м
[Cb cap As trans Ci fib]
+30.6 +25.4 74 +45 +45 опасность
перегрева
1003.8 974.5 +34.7
15 19.05 штиль 0 10 км 3/3 600 м
[Cu hum Ci fib]
+25.5 +22.4 83 +33 +33 очень
душно
1006.6 976.7
18 19.05 штиль 0 8000 м дымка 1/1 300 м
[Cu hum]
+25.2 +23.4 90 +34 +34 очень
душно
1006.5 976.5
21 19.05 штиль 0 8000 м дымка 1/0
[Ci fib]
+24.0 +23.1 95 +32 +32 очень
душно
1004.7 974.6
00 20.05 штиль 0 10 км 1/0
[Ci fib]
+25.0 +23.5 91 +34 +36 очень
душно
1008.2 978.1 +23.5
03 20.05 штиль 0 12 км 4/4 600 м
[Sc]
+31.8 +24.1 64 +44 +57 опасность
перегрева
1008.1 978.7
06 20.05 штиль 0 12 км 6/6 600 м
[Sc Ci fib]
+34.4 +23.5 53 +45 +57 опасность
перегрева
1005.6 976.5
09 20.05 СЗ 3 6000 м гроза, ливневой дождь 10/8 300 м
[Cb cap Ac As]
+25.3 +22.9 87 +34 +34 очень
душно
1005.5 975.6 2
12 20.05 СЗ 2 12 км {гроза, дождь} 10/6 600 м
[Sc Ac As Cs]
+23.9 +21.9 89 +31 +31 очень
душно
1006.0 975.9 +35.0 1
15 20.05 штиль 0 10 км 4/4 600 м
[Sc Ci fib]
+23.5 +22.1 92 +30 +30 очень
душно
1008.3 978.1
18 20.05 штиль 0 8000 м дымка 3/3 600 м
[Cu hum]
+23.2 +22.1 94 +32 +32 очень
душно
1007.9 977.6
21 20.05 штиль 0 8000 м дымка 3/3 600 м
[Cu hum]
+22.8 +22.2 96 +31 +31 очень
душно
1007.3 977.0
00 21.05 штиль 0 10 км 8/4 600 м
[Sc Ac und Cs]
+23.4 +22.0 92 +32 +33 очень
душно
1009.3 979.0 +21.5

 

Местоположение метеостанции Nan Agromet (Таиланд): широта 18.87 долгота 100.75 высота над уровнем моря 264 м.

В архиве по умолчанию представлена погода в Nan Agromet за последнюю неделю. Архивные данные за месяц целиком и за предыдущие месяцы, начиная с января 2011 года, Вы можете получить, выбрав интересующий диапазон дат из раскрывающегося списка и нажав кнопку "Ввод!".


*Определитесь, кто Вы:
робот инопланетянин человек

Внимание! Время в таблицах - всемирное. Для получения местного времени необходимо прибавить поправку, которая в Nan Agromet равна 7 ч.

Смотрите также архив погоды в соседних городах и на ближайших метеорологических станциях:

Погода в Nan (Таиланд) (11 км)
Погода в Tha Wang Pha (Таиланд) (28 км)
Погода в Thung Chang (Таиланд) (63 км)
Погода в Phayao (Таиланд) (94 км)
Погода в Phrae (Таиланд) (100 км)
Погода в Sayaboury (Лаос) (108 км)
Погода в Lampang (Таиланд) (145 км)
Погода в Chiang Rai (Таиланд) (153 км)
Погода в Uttaradit (Таиланд) (155 км)
Погода в Chiang Rai Agromet (Таиланд) (159 км)

Пояснения к столбцам:

Ветер - указаны скорость ветра в м/с - средняя за 10 мин, порывы в срок и между сроками (в фигурных скобках) и направление, откуда дует ветер: С - северный, СВ - северо-восточный, В - восточный, ЮВ - юго-восточный, Ю - южный, ЮЗ - юго-западный, З - западный, СЗ - северо-западный.
Видимость - горизонтальная дальность видимости в метрах или километрах. При видимости от 1 до 10 км при отсутствии осадков обычно наблюдается дымка, при ухудшении видимости до 1 км и менее - туман. В сухую погоду видимость может ухудшаться дымом, пылью или мглою.
Явления - указаны атмосферные явления, наблюдавшиеся в срок или в последний час перед сроком; фигурными скобками обозначены явления, наблюдавшиеся между сроками (за 1-3 часа до срока); квадратными скобками обозначены град или гололедные отложения с указанием их диаметра в мм.
Облачность - указаны через наклонную черту общая и нижняя облачность в баллах и высота нижней границы облаков в метрах; квадратными скобками обозначены формы облаков: Ci - перистые, Cs - перисто-слоистые, Cc - перисто-кучевые, Ac - высококучевые, As - высокослоистые, Sc - слоисто-кучевые, Ns - слоисто-дождевые, Cu - кучевые, Cb - кучево-дождевые. Подробнее классификацию облаков см. в Атласе облаков (PDF).
T - Температура воздуха - температура, измеренная на высоте 2 м над землей.
Td - Температура точки росы - температура, при понижении до которой содержащийся в воздухе водяной пар достигнет насыщения.
f - Относительная влажность воздуха - влажноcть воздуха, измеренная на высоте 2 м над землей.
Te - Эффективная температура - температура, которую ощущает одетый по сезону человек в тени. Характеристика душности погоды. При расчете учитывается влияние влажности воздуха и скорости ветра на теплоощущения человека.
Tes - Эффективная температура на солнце - температура, которую ощущает человек, с поправкой на солнечный нагрев. Характеристика знойности погоды. Зависит от высоты солнца над горизонтом, облачности и скорости ветра. Ночью, в пасмурную погоду, а также при ветре 12 м/с и более поправка равна нулю.
P - Атмосферное давление - приведенное к уровню моря атмосферное давление.
Po - Атмосферное давление - измеренное на уровне метеостанции атмосферное давление.
Tmin - Минимальная температура - минимум температуры воздуха на высоте 2 м над землей.
Tmax - Максимальная температура - максимум температуры воздуха на высоте 2 м над землей.
R - Количество осадков - Количество выпавших осадков за период времени, мм. При наведении курсора мыши на число - период времени, за который выпало указанное количество осадков.
R24 - Количество осадков - Количество выпавших осадков за 24 часа, мм.
S - Снежный покров - Высота снежного покрова, см. При наведении курсора мыши на число - состояние снежного покрова и степень покрытия местности в баллах.